Weather Roundup
Issued by NWS Chicago, IL

Home | Current Version | Previous Version | Graphics & Text | Print | Product List | Glossary On
Versions: 1 2 3 4 5 6 7 8 9 10 11 12 13 14 15 16 17 18 19 20 21 22 23 24 25 26 27 28 29 30 31 32 33 34 35 36 37 38 39 40 41 42 43 44 45 46 47 48 49 50
000
NZUS59 KLOT 271606
HRRLOT

CHICAGO AREA WEATHER ROUNDUP
NATIONAL WEATHER SERVICE CHICAGO/ROMEOVILLE IL
1000 AM CST THU NOV 27 2014

NOTE: "FAIR" INDICATES FEW OR NO CLOUDS BELOW 12,000 FEET WITH NO
SIGNIFICANT WEATHER AND/OR OBSTRUCTIONS TO VISIBILITY.

* THESE STATIONS ARE NOT UNDER NWS QUALITY CONTROL. THEY ALSO MAY NOT
  REPORT WEATHER SUCH AS PRECIPITATION OR FOG.

ILZ005-006-012>014-019>023-271700-
NORTHEAST ILLINOIS

CITY           SKY/WX    TMP DP  RH WIND       PRES   REMARKS
OHARE          PTSUNNY   26  18  71 NW13      30.32R WCI  15
MIDWAY         PTSUNNY   28  20  71 NW15      30.33R WCI  16
AURORA         CLOUDY    26  18  71 NW16      30.35R WCI  14
LANSING*       CLOUDY    28  21  75 NW10G16   30.32R WCI  18
JOLIET*        CLOUDY    26  20  77 NW10G16   30.36R WCI  17
WAUKEGAN       CLOUDY    23  17  78 W13G21    30.32R WCI  11
DUPAGE AIRPORT CLOUDY    25  19  78 NW16      30.33R WCI  12
WHEELING       PTSUNNY   25  18  74 NW15G24   30.34R WCI  13
KANKAKEE*      CLOUDY   N/A N/A N/A NW13G21   30.35S
MORRIS*        PTSUNNY   27  23  84 NW14      30.36R WCI  16
LEWIS AIRPORT* CLOUDY    26  20  77 NW16G23   30.34R WCI  13
NORTHERLY IS     N/A     28  20  71 NW9         N/A  WCI  19
$$

WIZ051-052-058>065-066-070>072-271700-
SOUTHEAST WISCONSIN

CITY           SKY/WX    TMP DP  RH WIND       PRES   REMARKS
MILWAUKEE      CLOUDY    23  16  74 NW14      30.32R WCI  11
KENOSHA*       CLOUDY    23  17  78 NW17      30.33R WCI   9
RACINE*        CLOUDY    23  16  74 NW14G21   30.34R WCI  11
BURLINGTON     CLOUDY    19  14  82 NW15      30.34R WCI   5
WAUKESHA       CLOUDY    18  12  79 NW17      30.34R WCI   2
WEST BEND      CLOUDY    21  16  79 NW10      30.33R WCI  10
$$

INZ001>003-010>013-019-020-271700-
NORTHWEST INDIANA

CITY           SKY/WX    TMP DP  RH WIND       PRES   REMARKS
GARY*          PTSUNNY   30  21  69 NW9       30.33R WCI  22
MICHIGAN CITY* NOT AVBL
RENSSELAER*    NOT AVBL
VALPARAISO     CLOUDY    26  21  81 W14       30.30R WCI  14
$$

LMZ740>746-271700-
SOUTHERN LAKE MICHIGAN

STATION/POSITION TIME  SKY/WX   TEMP WIND        PRES    VSBY
                                AIR  DIR/SP/G
                 (UTC)          (F)  (DEG/KT/KT) (MB)    (MI)
HARRISON CRIB    1600            26  310/ 13/ 18   N/A
BURNHAM HARBOR   1600            28  270/  8/ 14   N/A
CALUMET HARBOR   1600            27  280/ 10/ 14 1025.4R
BURNS HARBOR     NOT AVBL
MICHIGAN CITY    1600            30  280/ 18/ 20   N/A
$$

ABBREVIATIONS USED IN REMARKS
   TC - TEMPERATURE IN CELSIUS
  WCI - WIND CHILL INDEX
   HX - HEAT INDEX
  VSB - VISIBILITY
$$



USA.gov is the U.S. government's official web portal to all federal, state and local government web resources and services.